Location: Unspecified
(0.0000°N, 0.0000°E)
Time: 06:58:53
(UTC+00:00)

Envisat - Pass Details

Date: 11 October 2019
Orbit: 764 x 766 km, 98.1° (Epoch: 15 October)

Event Time Altitude Azimuth Distance (km) Brightness Sun altitude
Rises 19:30:45 0° 198° (SSW) 3,230 6.6 -25.8°
Reaches altitude 10° 19:33:49 10° 217° (SW) 2,301 6.0 -26.5°
Maximum altitude 19:37:03 17° 257° (WSW) 1,851 5.8 -27.3°
Drops below altitude 10° 19:40:17 10° 298° (WNW) 2,295 6.1 -28.1°
Sets 19:43:21 0° 317° (NW) 3,217 6.7 -28.9°
